Погода в Уберландии

Бразилия     18°55′20″S   48°16′37″W
темп.,
°C
ветер,
м/с
пор.,
м/с
влажн.,
%
обл.,
%
осадки,
мм/ч
давл.,
гПа
погр.,
м
27 февраля, сб
сб2700:00+18всв3895100 0.0 1013324
03:00+18св4109494 0.0 1012417
06:00+18св499646 0.0 1012379
09:00+22св588469 0.2 1014695
12:00+24св687656 2.4 1013918
15:00+25св687237 4.7 10101018
18:00+22св6108211 0.7 1009631
21:00+19всв612886 0.8 1012465
28 февраля, вс
вс2800:00+19св51288100 0.0 1012515
03:00+18св51286100 0.0 1011436
06:00+18св5128549 0.0 1012436
09:00+21св7117875 0.0 1014848
12:00+24св7970100 0.1 10131127
15:00+25св797262 2.6 10101185
18:00+22св5108357 2.6 1009610
21:00+20св4108855 3.2 1011352
1 марта, пн
пн100:00+20ссв41086100 0.0 1012419
03:00+19ссв3782100 0.3 1011233
06:00+19всв3587100 0.1 1012180
09:00+20св5983100 0.1 1013683
12:00+24св5772100 0.0 10131040
15:00+26св4566100 0.1 10091299
18:00+23всв368094 0.4 1009335
21:00+21всв388596 3.5 1012224
2 марта, вт
вт200:00+20всв4886100 1.4 1013232
03:00+19всв489097 1.5 1012254
06:00+18всв48917 0.0 1013270
09:00+22св7108011 0.0 1015744
12:00+25св68670 0.0 10141059
15:00+27св56620 0.0 10111232
18:00+24всв47762 0.0 1010385
21:00+21всв358527 0.5 1014199
3 марта, ср
ср300:00+20св3689100 2.0 1015217
03:00+19св3687100 2.0 1014185
06:00+18св3685100 0.0 1015161
09:00+21св5979100 0.0 1017557
12:00+24св5771100 0.1 1016957
15:00+26св4569100 1.3 10131090
18:00+24св237999 2.4 1012207
21:00+21всв368799 2.6 1014213